Point Lay, AK

8:52 AM AKST on November 24, 2017 (GMT -0900)
Point Lay

Weather History for PPIZ - November, 2012

Change the Weather History Date:

Monday, November 5, 2012

  Actual Average Record
Temperature  
Mean Temperature 2 °F -  
Max Temperature 13 °F 12 °F 48 °F (2002)
Min Temperature -8 °F 5 °F -17 °F (1999)
Degree Days  
Heating Degree Days 62    
Moisture  
Dew Point 1 °F    
Average Humidity 82    
Maximum Humidity 88    
Minimum Humidity 72    
Precipitation  
Precipitation 0.00 in - - ()
Sea Level Pressure  
Sea Level Pressure 30.19 in    
Wind  
Wind Speed 9 mph (SSE)    
Max Wind Speed 15 mph    
Max Gust Speed -    
Visibility 7 miles    
Events Snow    
Averages and records for this station are not official NWS values.
T = Trace of Precipitation, MM = Missing Value Source: NWS Daily Summary

Daily Weather History Graph

Daily Weather History Graph

Search for Another Location

Airport or City:

Trip Planner

Search our weather history database for the weather conditions in past years. The results will help you decide how hot, cold, wet, or windy it might be!

Date:

Astronomy

Nov. 05, 2012 Rise Set
Actual Time 10:43 AM AKST 4:26 PM AKST
Civil Twilight 9:25 AM AKST 5:44 PM AKST
Nautical Twilight 8:10 AM AKST 6:59 PM AKST
Astronomical Twilight 7:00 AM AKST 8:09 PM AKST
Moon 10:28 PM AKST (11/5) 4:07 PM AKST (11/5)
Length of Visible Light 8h 19m
Length of Day
5h 42m
Waning Gibbous, 61% of the Moon is Illuminated
Nov 5
Waning Gibbous
Nov 6
Last Quarter
Nov 13
New
Nov 20
First Quarter
Nov 28
Full

Hourly Weather History & Observations

Time (AKST) Temp. Windchill Dew Point Humidity Pressure Visibility Wind Dir Wind Speed Gust Speed Precip Events Conditions
12:04 AM 12.2 °F -0.2 °F 8.6 °F 85% 30.16 in 1.8 mi South 9.2 mph - 0.00 in Snow Light Snow
12:10 AM 12.2 °F 0.7 °F 8.6 °F 85% 30.16 in 1.0 mi South 8.1 mph - 0.00 in Snow Light Snow
12:22 AM 12.2 °F -0.2 °F 8.6 °F 85% 30.16 in 1.5 mi South 9.2 mph - 0.00 in Snow Light Snow
12:33 AM 12.2 °F -1.0 °F 8.6 °F 85% 30.17 in 3.0 mi South 10.4 mph - 0.00 in Snow Light Snow
12:46 AM 12.2 °F -1.8 °F 8.6 °F 85% 30.17 in 3.0 mi South 11.5 mph - 0.00 in Snow Light Snow
12:56 AM 12.0 °F -0.4 °F 8.1 °F 84% 30.18 in 10.0 mi South 9.2 mph - 0.00 in Snow Light Snow
1:08 AM 12.2 °F 0.7 °F 8.6 °F 85% 30.17 in 5.0 mi South 8.1 mph - 0.00 in Snow Light Snow
1:13 AM 12.2 °F -1.8 °F 8.6 °F 85% 30.17 in 2.0 mi South 11.5 mph - 0.00 in Snow Light Snow
1:19 AM 12.2 °F -0.2 °F 8.6 °F 85% 30.17 in 1.8 mi South 9.2 mph - 0.00 in Snow Light Snow
1:27 AM 12.2 °F -1.0 °F 8.6 °F 85% 30.17 in 2.5 mi South 10.4 mph - 0.00 in Snow Light Snow
1:33 AM 12.2 °F 0.7 °F 8.6 °F 85% 30.18 in 5.0 mi South 8.1 mph - 0.00 in Snow Light Snow
1:56 AM 13.1 °F 0.9 °F 10.0 °F 88% 30.19 in 2.5 mi South 9.2 mph - 0.00 in Snow Light Snow
2:11 AM 12.2 °F 0.7 °F 8.6 °F 85% 30.18 in 3.0 mi South 8.1 mph - 0.00 in Snow Light Snow
2:31 AM 12.2 °F 1.7 °F 8.6 °F 85% 30.18 in 4.0 mi South 6.9 mph - 0.00 in Snow Light Snow
2:56 AM 12.2 °F 0.7 °F 8.6 °F 85% 30.18 in 10.0 mi South 8.1 mph - N/A   Overcast
3:56 AM 12.0 °F 1.5 °F 9.1 °F 88% 30.20 in 6.0 mi South 6.9 mph - 0.00 in Snow Light Snow
4:56 AM 10.0 °F 0.4 °F 7.2 °F 88% 30.21 in 8.0 mi South 5.8 mph - 0.00 in Snow Light Snow
5:56 AM 8.6 °F -2.6 °F 5.0 °F 85% 30.20 in 4.0 mi South 6.9 mph - N/A Snow Light Snow
6:56 AM 8.1 °F -3.2 °F 5.0 °F 87% 30.22 in 3.0 mi South 6.9 mph - 0.00 in Snow Light Snow
7:56 AM 7.2 °F -3.0 °F 4.1 °F 87% 30.22 in 5.0 mi South 5.8 mph - 0.00 in Snow Light Snow
8:26 AM 8.6 °F -1.3 °F 3.2 °F 79% 30.20 in 8.0 mi SSE 5.8 mph - 0.00 in   Overcast
8:56 AM 6.8 °F -3.5 °F 3.2 °F 85% 30.20 in 10.0 mi SSE 5.8 mph - N/A   Overcast
9:56 AM 3.0 °F -9.3 °F -0.9 °F 84% 30.22 in 10.0 mi SSE 6.9 mph - N/A   Clear
10:56 AM 0.1 °F -12.8 °F -4.0 °F 83% 30.23 in 10.0 mi SSE 6.9 mph - N/A   Clear
11:56 AM -0.4 °F -13.4 °F -4.0 °F 85% 30.22 in 10.0 mi SSE 6.9 mph - N/A   Scattered Clouds
12:04 PM -0.4 °F -12.0 °F -4.0 °F 85% 30.22 in 10.0 mi SSE 5.8 mph - N/A   Mostly Cloudy
12:56 PM 0.1 °F -11.4 °F -4.0 °F 83% 30.24 in 10.0 mi SSE 5.8 mph - N/A   Mostly Cloudy
1:07 PM -0.4 °F -13.4 °F -5.8 °F 78% 30.22 in 10.0 mi SSE 6.9 mph - N/A   Partly Cloudy
1:56 PM -0.9 °F -14.1 °F -6.0 °F 79% 30.23 in 10.0 mi SSE 6.9 mph - N/A   Clear
2:56 PM -2.9 °F -17.7 °F -8.0 °F 79% 30.22 in 10.0 mi SSE 8.1 mph - N/A   Clear
3:56 PM -2.9 °F -16.5 °F -8.0 °F 79% 30.21 in 10.0 mi SSE 6.9 mph - N/A   Clear
4:56 PM -4.9 °F -18.8 °F -9.9 °F 79% 30.20 in 10.0 mi SSE 6.9 mph - N/A   Clear
5:56 PM -8.0 °F -22.5 °F -11.9 °F 83% 30.20 in 10.0 mi SSE 6.9 mph - N/A   Clear
6:56 PM -6.0 °F -20.1 °F -10.8 °F 79% 30.20 in 10.0 mi SSE 6.9 mph - N/A   Clear
7:56 PM -6.9 °F -22.5 °F -11.9 °F 79% 30.19 in 10.0 mi SSE 8.1 mph - N/A   Clear
8:56 PM -4.0 °F -19.0 °F -8.9 °F 80% 30.18 in 10.0 mi SSE 8.1 mph - N/A   Clear
9:56 PM -1.8 °F -18.5 °F -6.0 °F 83% 30.17 in 10.0 mi SSE 10.4 mph - N/A   Clear
10:56 PM -1.8 °F -18.5 °F -8.0 °F 75% 30.17 in 10.0 mi South 10.4 mph - N/A   Partly Cloudy
11:24 PM 1.4 °F -15.3 °F -5.8 °F 72% 30.15 in 10.0 mi South 11.5 mph - N/A   Mostly Cloudy
11:32 PM 1.4 °F -14.5 °F -5.8 °F 72% 30.15 in 10.0 mi South 10.4 mph - N/A   Scattered Clouds
11:40 PM 1.4 °F -16.1 °F -5.8 °F 72% 30.15 in 10.0 mi South 12.7 mph - N/A   Mostly Cloudy
11:56 PM 5.0 °F -13.0 °F -0.4 °F 78% 30.14 in 10.0 mi South 15.0 mph - N/A   Overcast